[[{"header":{"parameterUnit":"m.s-1","parameterCategory":1,"la1":30.2991,"la2":30.254,"lo1":-89.0895,"lo2":-89.0444,"dy":0.0017,"dx":0.0017,"nx":28,"ny":28,"refTime":"2024-04-25T21:00:00:Z","depth":0,"parameterNumber":2,"parameterNumberName":"U-component_of_WINDS"},"data":[0,0,0,0,0,0,0,0,0,0,0,0,0,0,0,0,0,0,0,0,0,0,0,0,0,0,0,0,0,0,0,0,0,0,0,0,0,0,0,0,0,0,0,0,0,0,0,0,0,0,0,0,0,0,0,0,0,0,-3.7984,-3.7985,0,-3.8077,-3.8078,-3.8079,-3.8079,-3.8078,-3.8077,-3.8076,-3.8168,-3.8171,-3.8175,0,0,0,0,0,0,0,0,0,0,0,0,0,-3.7804,-3.7808,-3.7984,-3.7985,-3.7986,-3.8077,-3.8078,-3.8079,-3.8079,-3.8078,-3.8076,-3.8075,-3.8166,-3.8171,-3.8175,0,0,0,0,0,0,0,0,0,0,0,0,0,-3.7888,-3.7809,-3.7984,-3.7997,-3.7999,-3.8077,-3.8078,-3.808,-3.808,-3.8078,-3.8076,-3.8074,-3.8165,-3.817,-3.8175,-3.8245,0,0,-3.8192,-3.8194,0,0,0,0,0,0,0,0,-3.7884,-3.7895,-3.7994,-3.7996,-3.7999,-3.8065,-3.8049,-3.8135,-3.808,-3.8049,-3.8075,-3.8073,-3.8135,-3.8142,-3.8164,-3.8249,-3.8253,-3.8192,-3.8196,-3.8198,-3.8199,0,0,0,0,0,0,0,-3.7878,-3.7891,-3.8021,-3.7995,-3.7998,-3.7998,-3.8008,-3.8065,-3.8101,-3.8052,-3.8052,-3.8063,-3.8135,-3.8158,-3.8166,-3.8254,-3.8192,-3.8197,-3.82,-3.8202,-3.8402,-3.8404,0,0,0,0,0,0,-3.787,-3.7886,-3.8018,-3.8023,-3.7936,-3.8003,-3.8014,-3.8045,-3.81,-3.8107,-3.8064,-3.8063,-3.815,-3.8159,-3.8169,-3.8253,-3.8198,-3.8203,-3.8206,-3.84,-3.8402,-3.8404,0,0,0,0,0,0,-3.7866,-3.7881,-3.8014,-3.7955,-3.7972,-3.8008,-3.8043,-3.8048,-3.8071,-3.811,-3.8116,-3.8081,-3.8149,-3.8161,-3.8226,-3.8257,-3.8205,-3.821,-3.8397,-3.84,-3.8403,-3.8423,0,0,0,0,0,0,-3.7861,-3.788,-3.7907,-3.7956,-3.7975,-3.807,-3.8045,-3.8051,-3.8081,-3.8079,-3.8127,-3.8133,-3.8149,-3.8218,-3.8232,-3.8263,-3.8214,-3.8395,-3.8399,-3.8402,-3.842,-3.8426,-3.8432,0,0,0,0,0,-3.7854,-3.7907,-3.7908,-3.7924,-3.8009,-3.8072,-3.8083,-3.81,-3.8083,-3.811,-3.8135,-3.8132,-3.8252,-3.8225,-3.824,-3.8273,-3.8393,-3.8398,-3.8402,-3.8417,-3.8425,-3.8432,0,0,0,0,0,0,-3.7859,-3.7914,-3.7915,-3.7986,-3.8025,-3.8072,-3.8106,-3.8108,-3.8151,-3.8148,-3.8166,-3.8177,-3.8242,-3.8265,-3.8234,-3.8344,-3.832,-3.8328,-3.8326,-3.8334,-3.834,-3.8333,-3.8219,0,0,0,0,0,-3.7869,-3.7916,-3.7961,-3.8019,-3.8039,-3.8069,-3.8097,-3.8108,-3.8147,-3.8163,-3.8193,-3.8231,-3.8278,-3.8308,-3.8352,-3.8424,-3.8434,-3.8455,-3.8461,-3.8466,-3.8472,-3.8511,-3.8521,-3.842,-3.842,-3.842,0,0,-3.7889,-3.7925,-3.7953,-3.8021,-3.8052,-3.81,-3.8083,-3.8133,-3.8169,-3.8171,-3.8234,-3.8257,-3.8301,-3.837,-3.8402,-3.8391,-3.8502,-3.8472,-3.8475,-3.8479,-3.8517,-3.8527,-3.8535,-3.8423,-3.8423,-3.8422,0,0,-3.7949,-3.7982,-3.8034,-3.8066,-3.8114,-3.8134,-3.8147,-3.8195,-3.8211,-3.8275,-3.8277,-3.832,-3.8399,-3.8431,-3.8457,-3.8532,-3.8531,-3.8547,-3.8578,-3.8616,-3.8624,-3.8631,-3.8658,-3.8667,-3.8553,-3.8553,-3.8553,0,-3.7967,-3.804,-3.806,-3.8112,-3.8142,-3.8148,-3.8201,-3.8231,-3.829,-3.831,-3.8298,-3.8399,-3.8429,-3.8505,-3.8524,-3.8545,-3.856,-3.854,-3.8622,-3.8629,-3.8636,-3.8661,-3.8671,-3.8554,-3.8554,-3.8554,-3.8554,0,-3.806,-3.811,-3.8147,-3.8205,-3.824,-3.8292,-3.832,-3.8352,-3.8361,-3.8382,-3.8448,-3.8485,-3.8537,-3.8557,-3.8565,-3.8635,-3.8626,-3.8618,-3.8594,-3.8647,-3.8671,-3.8681,-3.8557,-3.8556,-3.8556,-3.8555,0,0,-3.8122,-3.8194,-3.8207,-3.8234,-3.8289,-3.8328,-3.8381,-3.8434,-3.8461,-3.8503,-3.8547,-3.8616,-3.8609,-3.8639,-3.8651,-3.8685,-3.8742,-3.8672,-3.8674,-3.8683,-3.8821,-3.8826,-3.8836,-3.8742,-3.8744,-3.8746,-3.8817,0,-3.8188,-3.8282,-3.8303,-3.8384,-3.843,-3.8439,-3.8485,-3.8523,-3.8545,-3.8588,-3.8613,-3.8661,-3.8648,-3.8667,-3.8701,-3.8728,-3.877,-3.8723,-3.8782,-3.8784,-3.8769,-3.8849,-3.8854,-3.8919,-3.8826,-3.8828,-3.8829,0,-3.8275,-3.8321,-3.8407,-3.8456,-3.8477,-3.8518,-3.8569,-3.861,-3.8654,-3.8668,-3.8703,-3.8712,-3.8767,-3.8743,-3.8818,-3.8786,-3.8813,-3.883,-3.8833,-3.8837,-3.8808,-3.8854,-3.894,-3.8949,-3.8844,-3.8843,-3.8842,0,-3.8311,-3.8394,-3.8456,-3.848,-3.8539,-3.8568,-3.8594,-3.8637,-3.8668,-3.8713,-3.8733,-3.8783,-3.881,-3.8849,-3.8871,-3.8851,-3.8945,-3.8923,-3.8957,-3.8957,-3.8974,-3.8972,-3.9064,-3.8994,-3.8994,-3.8994,-3.8994,0,-3.838,-3.8432,-3.8473,-3.8511,-3.857,-3.8594,-3.8652,-3.8678,-3.8716,-3.8759,-3.877,-3.881,-3.8838,-3.8882,-3.89,-3.896,-3.8972,-3.8984,-3.8988,-3.8982,-3.898,-3.8998,-3.8993,-3.8997,-3.8996,-3.8996,-3.8995,0,-3.8429,-3.8459,-3.8527,-3.858,-3.8594,-3.8635,-3.8679,-3.8716,-3.8741,-3.8795,-3.8809,-3.8846,-3.8899,-3.8926,-3.8991,-3.9003,-3.907,-3.9072,-3.9055,-3.9057,-3.9089,-3.9085,-3.9193,-3.9208,-3.913,-3.9131,-3.9132,0,-3.847,-3.8511,-3.8568,-3.8598,-3.8625,-3.8674,-3.8706,-3.8733,-3.8766,-3.882,-3.8851,-3.8905,-3.8948,-3.9032,-3.9064,-3.9115,-3.9117,-3.9152,-3.9124,-3.9117,-3.9116,-3.9112,-3.9116,-3.9155,-3.9156,-3.9157,-3.9157,0,-3.854,-3.8553,-3.86,-3.8652,-3.8691,-3.8733,-3.8775,-3.8799,-3.8832,-3.8869,-3.8924,-3.8958,-3.9026,-3.9079,-3.9132,-3.9159,-3.9163,-3.9166,-3.9177,-3.917,-3.9158,-3.9164,-3.9067,-3.9163,-3.9162,-3.9162,-3.9161,-3.9161,-3.8585,-3.8622,-3.8668,-3.872,-3.8755,-3.8794,-3.8832,-3.8862,-3.8908,-3.8966,-3.8979,-3.9037,-3.9081,-3.9154,-3.9182,-3.9227,-3.922,-3.9235,-3.9239,-3.9242,-3.9243,-3.9153,-3.9237,-3.9237,-3.9237,-3.9237,-3.9237,0,-3.8654,-3.8685,-3.8733,-3.8792,-3.8833,-3.8836,-3.8883,-3.8917,-3.8968,-3.901,-3.9054,-3.9117,-3.9169,-3.9207,-3.926,-3.9289,-3.9292,-3.9302,-3.9299,-3.9305,-3.9247,-3.9232,-3.9298,-3.9298,-3.9298,-3.9298,-3.9298,-3.9298,-3.8694,-3.8757,-3.8776,-3.8856,-3.8886,-3.8944,-3.897,-3.9007,-3.904,-3.9111,-3.9155,-3.918,-3.922,-3.9276,-3.9324,-3.9334,-3.9352,-3.9361,-3.9371,-3.9315,-3.9309,-3.9302,-3.9288,-3.9366,-3.9366,-3.9425,-3.9426,-3.9426]},{"header":{"parameterUnit":"m.s-1","parameterCategory":1,"la1":30.2991,"la2":30.254,"lo1":-89.0895,"lo2":-89.0444,"dy":0.0017,"dx":0.0017,"nx":28,"ny":28,"refTime":"2024-04-25T21:00:00:Z","depth":0,"parameterNumber":3,"parameterNumberName":"V-component_of_WINDS"},"data":[0,0,0,0,0,0,0,0,0,0,0,0,0,0,0,0,0,0,0,0,0,0,0,0,0,0,0,0,0,0,0,0,0,0,0,0,0,0,0,0,0,0,0,0,0,0,0,0,0,0,0,0,0,0,0,0,0,0,4.2882,4.2882,0,4.287,4.287,4.287,4.2803,4.2801,4.2799,4.2798,4.2786,4.2787,4.2788,0,0,0,0,0,0,0,0,0,0,0,0,0,4.2846,4.2847,4.2882,4.2882,4.2882,4.287,4.287,4.287,4.2803,4.2801,4.2799,4.2797,4.2786,4.2787,4.2788,0,0,0,0,0,0,0,0,0,0,0,0,0,4.2851,4.2847,4.2882,4.2847,4.2843,4.287,4.287,4.287,4.2803,4.2801,4.2799,4.2796,4.2785,4.2787,4.2789,4.2849,0,0,4.2794,4.2795,0,0,0,0,0,0,0,0,4.2851,4.2852,4.2852,4.2849,4.2846,4.2835,4.2853,4.2863,4.2804,4.2819,4.2798,4.2795,4.2804,4.2805,4.2808,4.2848,4.2847,4.2794,4.2795,4.2796,4.2797,0,0,0,0,0,0,0,4.285,4.2852,4.2877,4.2852,4.2848,4.2832,4.283,4.2855,4.2825,4.2817,4.2812,4.2812,4.2802,4.2806,4.2807,4.2847,4.2794,4.2796,4.2797,4.2798,4.2937,4.294,0,0,0,0,0,0,4.2855,4.2853,4.2878,4.2877,4.2842,4.2834,4.2832,4.2841,4.2825,4.282,4.2814,4.2809,4.2804,4.2805,4.2806,4.2876,4.2796,4.2798,4.2799,4.2935,4.2938,4.2941,0,0,0,0,0,0,4.2855,4.2858,4.2878,4.2863,4.2865,4.2838,4.2848,4.2842,4.2846,4.2822,4.2817,4.2823,4.2802,4.2804,4.2839,4.2874,4.2799,4.28,4.2932,4.2936,4.2939,4.3015,0,0,0,0,0,0,4.2854,4.2858,4.288,4.2864,4.2866,4.2911,4.285,4.2844,4.2849,4.2842,4.283,4.2825,4.2801,4.2837,4.2841,4.2876,4.2802,4.2928,4.2933,4.2938,4.301,4.3021,4.3032,0,0,0,0,0,4.2853,4.2902,4.2882,4.2885,4.2893,4.2913,4.2914,4.2884,4.2853,4.2875,4.286,4.2826,4.287,4.2841,4.2845,4.2881,4.2926,4.2932,4.2938,4.3005,4.3019,4.3031,0,0,0,0,0,0,4.2922,4.2899,4.2876,4.2922,4.292,4.2902,4.2928,4.29,4.2907,4.2901,4.2864,4.2862,4.2902,4.2895,4.2863,4.2939,4.2892,4.2899,4.2942,4.2955,4.2966,4.2967,4.2803,0,0,0,0,0,4.2942,4.2961,4.294,4.2982,4.2982,4.2956,4.2963,4.2941,4.2938,4.2936,4.2924,4.2922,4.2935,4.2945,4.2956,4.3008,4.3005,4.3035,4.3046,4.3056,4.3062,4.309,4.3104,4.296,4.296,4.296,0,0,4.2985,4.2975,4.2988,4.2995,4.2991,4.3011,4.2955,4.2978,4.2993,4.294,4.2972,4.2963,4.2959,4.3003,4.3022,4.2998,4.3101,4.3063,4.3071,4.3072,4.3098,4.3111,4.3124,4.2964,4.2964,4.2963,0,0,4.3073,4.3067,4.3101,4.3099,4.3094,4.3076,4.3085,4.3071,4.3063,4.3096,4.3056,4.3073,4.3097,4.3096,4.3098,4.3188,4.3157,4.3193,4.325,4.3278,4.3289,4.3299,4.3332,4.3344,4.3199,4.3199,4.3199,0,4.3126,4.3154,4.3123,4.3149,4.3154,4.3107,4.3143,4.3142,4.3141,4.3145,4.3118,4.3148,4.3142,4.3186,4.3208,4.3211,4.322,4.3194,4.329,4.33,4.3309,4.3339,4.3352,4.3204,4.3203,4.3203,4.3202,0,4.3221,4.3241,4.327,4.3271,4.3279,4.331,4.3283,4.3295,4.3273,4.3259,4.3293,4.3284,4.3292,4.3301,4.3279,4.3343,4.3328,4.3297,4.3249,4.3327,4.3355,4.3367,4.321,4.3208,4.3207,4.3206,0,0,4.335,4.3335,4.3346,4.3346,4.3338,4.3353,4.3383,4.3392,4.3403,4.3404,4.3428,4.345,4.3422,4.3425,4.3402,4.3427,4.3499,4.3392,4.3392,4.3413,4.357,4.3594,4.3608,4.3479,4.3481,4.3483,4.357,0,4.3434,4.3483,4.3457,4.351,4.3529,4.3486,4.3511,4.351,4.3497,4.3512,4.3498,4.3515,4.3475,4.3477,4.35,4.3486,4.353,4.3479,4.3501,4.3503,4.3504,4.3622,4.3647,4.373,4.3581,4.3583,4.3584,0,4.3539,4.3546,4.3601,4.3591,4.3598,4.3621,4.3628,4.3643,4.364,4.363,4.3634,4.3606,4.3635,4.3589,4.3627,4.3593,4.3601,4.3596,4.3598,4.3599,4.3548,4.3627,4.3756,4.3768,4.3601,4.36,4.3598,0,4.3629,4.3652,4.3688,4.3689,4.3678,4.3696,4.3692,4.3687,4.3695,4.3701,4.3706,4.3716,4.3721,4.3729,4.3705,4.3673,4.3748,4.3699,4.374,4.3741,4.3757,4.3756,4.389,4.3762,4.3762,4.3762,4.3762,0,4.3726,4.3761,4.3728,4.375,4.3789,4.3759,4.3798,4.379,4.3786,4.3806,4.3769,4.3789,4.3756,4.3773,4.3754,4.379,4.3792,4.3785,4.3779,4.3788,4.3789,4.3792,4.3786,4.3765,4.3764,4.3764,4.3763,0,4.3832,4.3811,4.3848,4.3835,4.3833,4.3862,4.3851,4.3871,4.3857,4.3883,4.3888,4.3866,4.3883,4.386,4.3875,4.3863,4.3912,4.3898,4.3913,4.3909,4.3951,4.3948,4.4091,4.4109,4.397,4.3972,4.3973,0,4.3896,4.3922,4.3913,4.3924,4.3922,4.3941,4.3949,4.392,4.393,4.393,4.3951,4.3966,4.3976,4.4007,4.3992,4.4004,4.399,4.4039,4.3991,4.4,4.3991,4.399,4.3993,4.4049,4.4051,4.4052,4.4053,0,4.401,4.3999,4.4013,4.4023,4.4034,4.4041,4.4045,4.4056,4.4026,4.404,4.4058,4.4066,4.4082,4.4098,4.4106,4.4102,4.4073,4.4069,4.4079,4.4088,4.4096,4.4093,4.394,4.4065,4.4064,4.4063,4.4063,4.4062,4.4097,4.412,4.4117,4.4133,4.4134,4.4139,4.4158,4.4146,4.4161,4.4173,4.4155,4.4178,4.4176,4.4184,4.4184,4.4201,4.418,4.4195,4.4198,4.4203,4.4209,4.4094,4.4203,4.4202,4.4202,4.4202,4.4201,0,4.4211,4.4207,4.4223,4.423,4.4244,4.4216,4.422,4.4233,4.4254,4.4254,4.4266,4.4287,4.4302,4.429,4.4302,4.4319,4.4306,4.4324,4.4322,4.4322,4.4227,4.4218,4.4334,4.4334,4.4334,4.4334,4.4334,4.4334,4.4271,4.4308,4.4297,4.4333,4.4329,4.4352,4.4357,4.4361,4.4362,4.4388,4.4401,4.4393,4.4388,4.44,4.4413,4.4409,4.4416,4.4438,4.4429,4.4341,4.4328,4.4316,4.4306,4.444,4.444,4.4522,4.4523,4.4524]}]]